MMF54 ETNW-EHEH

Flight info

Callsign MMF54
Flight time 0h 41m
Altitude 18000
Route VAXEV Z718 OSNAD M170 HMM N853 DOMEG DCT ROTEK
Aircraft A339/H-SADE1E2E3GHIJ3J5M1P2RWXY/LB2D1

Departure

Time 2026-05-05 20:46
Airport Wunstorf Air Base (ETNW)

Arrival

Time 2026-05-05 21:28
Airport Eindhoven Airport (EHEH)
Time Latitude Longitude Altitude Speed Heading
2026-05-05 20:28 52.45936 9.41923 183 ft 0 kts 173°
2026-05-05 20:39 52.45935 9.41923 183 ft 1 kts 174°
2026-05-05 20:39 52.45933 9.41922 183 ft 0 kts 180°
2026-05-05 20:40 52.45932 9.41922 183 ft 1 kts 182°
2026-05-05 20:40 52.45924 9.41915 183 ft 2 kts 203°
2026-05-05 20:41 52.45914 9.41898 183 ft 3 kts 225°
2026-05-05 20:41 52.45905 9.41878 183 ft 8 kts 233°
2026-05-05 20:41 52.45861 9.41768 183 ft 11 kts 238°
2026-05-05 20:41 52.45823 9.41660 183 ft 10 kts 241°
2026-05-05 20:42 52.45790 9.41567 183 ft 9 kts 240°
2026-05-05 20:42 52.45759 9.41479 183 ft 9 kts 240°
2026-05-05 20:42 52.45730 9.41397 183 ft 8 kts 240°
2026-05-05 20:42 52.45693 9.41298 183 ft 7 kts 232°
2026-05-05 20:43 52.45672 9.41273 183 ft 6 kts 211°
2026-05-05 20:43 52.45644 9.41260 183 ft 4 kts 188°
2026-05-05 20:43 52.45625 9.41265 182 ft 0 kts 166°
2026-05-05 20:43 52.45614 9.41276 182 ft 0 kts 150°
2026-05-05 20:44 52.45606 9.41286 182 ft 1 kts 139°
2026-05-05 20:44 52.45600 9.41305 182 ft 3 kts 120°
2026-05-05 20:44 52.45598 9.41330 182 ft 3 kts 96°
2026-05-05 20:44 52.45602 9.41357 183 ft 4 kts 77°
2026-05-05 20:45 52.45612 9.41418 183 ft 1 kts 74°
2026-05-05 20:45 52.45613 9.41419 183 ft 0 kts 74°
2026-05-05 20:45 52.45633 9.41582 183 ft 48 kts 79°
2026-05-05 20:46 52.45720 9.42584 184 ft 127 kts 82°
2026-05-05 20:46 52.45888 9.44333 437 ft 171 kts 79°
2026-05-05 20:46 52.46118 9.46273 1347 ft 177 kts 72°
2026-05-05 20:46 52.46868 9.47771 2416 ft 174 kts 35°
2026-05-05 20:47 52.47993 9.48715 3077 ft 190 kts 26°
2026-05-05 20:47 52.49292 9.49550 3762 ft 208 kts 24°
2026-05-05 20:47 52.50654 9.50559 4526 ft 220 kts 27°
2026-05-05 20:47 52.52015 9.51864 5159 ft 234 kts 30°
2026-05-05 20:48 52.53535 9.53020 5750 ft 248 kts 15°
2026-05-05 20:48 52.55287 9.52996 6305 ft 261 kts 343°
2026-05-05 20:48 52.56868 9.51455 6817 ft 272 kts 314°
2026-05-05 20:48 52.57826 9.48776 7488 ft 275 kts 285°
2026-05-05 20:49 52.57907 9.45655 8214 ft 276 kts 257°
2026-05-05 20:49 52.57088 9.42829 8941 ft 278 kts 230°
2026-05-05 20:49 52.55741 9.40580 9414 ft 276 kts 222°
2026-05-05 20:49 52.54297 9.38422 9864 ft 283 kts 221°
2026-05-05 20:50 52.52805 9.36233 10186 ft 297 kts 221°
2026-05-05 20:50 52.51215 9.33883 10273 ft 318 kts 222°
2026-05-05 20:50 52.49612 9.31235 10372 ft 336 kts 227°
2026-05-05 20:50 52.48093 9.28211 10495 ft 351 kts 232°
2026-05-05 20:51 52.46663 9.24881 10627 ft 363 kts 236°
2026-05-05 20:51 52.45316 9.21336 11011 ft 367 kts 239°
2026-05-05 20:51 52.44052 9.17706 11459 ft 368 kts 240°
2026-05-05 20:51 52.42842 9.13994 11877 ft 370 kts 242°
2026-05-05 20:52 52.41679 9.10236 12297 ft 372 kts 243°
2026-05-05 20:52 52.40543 9.06419 12695 ft 374 kts 244°
2026-05-05 20:52 52.39442 9.02612 13100 ft 376 kts 244°
2026-05-05 20:52 52.38327 8.98666 13485 ft 378 kts 244°
2026-05-05 20:53 52.37234 8.94737 13858 ft 380 kts 245°
2026-05-05 20:53 52.36147 8.90782 14212 ft 382 kts 245°
2026-05-05 20:53 52.35061 8.86801 14541 ft 384 kts 245°
2026-05-05 20:53 52.33974 8.82798 14898 ft 386 kts 245°
2026-05-05 20:54 52.32885 8.78773 15242 ft 388 kts 245°
2026-05-05 20:54 52.31806 8.74782 15557 ft 391 kts 245°
2026-05-05 20:54 52.30704 8.70710 15901 ft 393 kts 245°
2026-05-05 20:54 52.29597 8.66618 16222 ft 395 kts 245°
2026-05-05 20:55 52.28483 8.62506 16567 ft 397 kts 245°
2026-05-05 20:55 52.27385 8.58346 16895 ft 400 kts 246°
2026-05-05 20:55 52.26318 8.54144 17216 ft 402 kts 246°
2026-05-05 20:55 52.25262 8.49906 17544 ft 403 kts 246°
2026-05-05 20:56 52.24253 8.45814 17726 ft 373 kts 246°
2026-05-05 20:56 52.23294 8.41903 17802 ft 369 kts 246°
2026-05-05 20:56 52.22333 8.37999 17834 ft 382 kts 246°
2026-05-05 20:56 52.21322 8.33914 17849 ft 395 kts 246°
2026-05-05 20:57 52.20278 8.29702 17849 ft 406 kts 246°
2026-05-05 20:57 52.19205 8.25387 17850 ft 416 kts 246°
2026-05-05 20:57 52.18112 8.20994 17851 ft 418 kts 246°
2026-05-05 20:57 52.17018 8.16605 17850 ft 418 kts 246°
2026-05-05 20:58 52.15920 8.12209 17851 ft 420 kts 246°
2026-05-05 20:58 52.14817 8.07800 17855 ft 420 kts 246°
2026-05-05 20:58 52.13714 8.03398 17854 ft 419 kts 246°
2026-05-05 20:58 52.12611 7.99009 17853 ft 419 kts 246°
2026-05-05 20:59 52.11506 7.94615 17853 ft 420 kts 246°
2026-05-05 20:59 52.10398 7.90221 17854 ft 420 kts 246°
2026-05-05 20:59 52.09289 7.85828 17853 ft 419 kts 246°
2026-05-05 20:59 52.08178 7.81443 17854 ft 420 kts 246°
2026-05-05 21:00 52.07063 7.77051 17856 ft 420 kts 246°
2026-05-05 21:00 52.05948 7.72663 17855 ft 420 kts 246°
2026-05-05 21:00 52.04832 7.68281 17856 ft 420 kts 246°
2026-05-05 21:00 52.03713 7.63901 17854 ft 419 kts 245°
2026-05-05 21:01 52.02595 7.59528 17857 ft 420 kts 246°
2026-05-05 21:01 52.01471 7.55145 17853 ft 421 kts 246°
2026-05-05 21:01 52.00345 7.50765 17856 ft 421 kts 245°
2026-05-05 21:01 51.99218 7.46385 17856 ft 420 kts 246°
2026-05-05 21:02 51.98092 7.42019 17858 ft 420 kts 246°
2026-05-05 21:02 51.96963 7.37646 17861 ft 421 kts 245°
2026-05-05 21:02 51.95829 7.33270 17858 ft 421 kts 245°
2026-05-05 21:02 51.94696 7.28899 17859 ft 420 kts 245°
2026-05-05 21:03 51.93583 7.24609 17867 ft 400 kts 245°
2026-05-05 21:03 51.92530 7.20548 17862 ft 385 kts 245°
2026-05-05 21:03 51.91484 7.16530 17859 ft 391 kts 245°
2026-05-05 21:03 51.90419 7.12453 17859 ft 393 kts 245°
2026-05-05 21:04 51.89352 7.08379 17862 ft 393 kts 245°
2026-05-05 21:04 51.88285 7.04311 17821 ft 393 kts 245°
2026-05-05 21:04 51.87241 7.00335 16867 ft 379 kts 245°
2026-05-05 21:04 51.86200 6.96387 15412 ft 382 kts 245°
2026-05-05 21:05 51.85162 6.92454 14610 ft 377 kts 245°
2026-05-05 21:05 51.84153 6.88629 14193 ft 362 kts 245°
2026-05-05 21:05 51.83195 6.85010 13692 ft 349 kts 245°
2026-05-05 21:05 51.82240 6.81414 12939 ft 346 kts 246°
2026-05-05 21:06 51.81315 6.77932 12648 ft 329 kts 245°
2026-05-05 21:06 51.80435 6.74618 12351 ft 313 kts 246°
2026-05-05 21:06 51.79586 6.71427 11781 ft 307 kts 246°
2026-05-05 21:06 51.78744 6.68274 11152 ft 305 kts 246°
2026-05-05 21:07 51.77911 6.65160 10734 ft 296 kts 246°
2026-05-05 21:07 51.77105 6.62152 10252 ft 290 kts 246°
2026-05-05 21:07 51.76308 6.59178 9679 ft 287 kts 246°
2026-05-05 21:07 51.75518 6.56228 9036 ft 286 kts 246°
2026-05-05 21:08 51.74733 6.53292 8455 ft 283 kts 246°
2026-05-05 21:08 51.73971 6.50443 8144 ft 270 kts 246°
2026-05-05 21:08 51.73251 6.47752 7981 ft 252 kts 246°
2026-05-05 21:08 51.72581 6.45250 7919 ft 234 kts 246°
2026-05-05 21:09 51.71919 6.42788 7906 ft 249 kts 246°
2026-05-05 21:09 51.71230 6.40234 7898 ft 253 kts 246°
2026-05-05 21:09 51.70486 6.37486 7893 ft 275 kts 246°
2026-05-05 21:09 51.69725 6.34681 7887 ft 272 kts 246°
2026-05-05 21:10 51.68966 6.31887 7884 ft 273 kts 246°
2026-05-05 21:10 51.68203 6.29074 7884 ft 274 kts 246°
2026-05-05 21:10 51.67442 6.26270 7886 ft 273 kts 246°
2026-05-05 21:10 51.66682 6.23469 7890 ft 274 kts 246°
2026-05-05 21:11 51.65918 6.20659 7886 ft 274 kts 246°
2026-05-05 21:11 51.65156 6.17855 7887 ft 273 kts 246°
2026-05-05 21:11 51.64393 6.15027 7670 ft 277 kts 248°
2026-05-05 21:11 51.64000 6.12020 7496 ft 272 kts 264°
2026-05-05 21:12 51.63853 6.08996 7347 ft 271 kts 267°
2026-05-05 21:12 51.63737 6.05961 7193 ft 272 kts 267°
2026-05-05 21:12 51.63620 6.02923 7049 ft 272 kts 267°
2026-05-05 21:12 51.63336 5.99938 6916 ft 270 kts 252°
2026-05-05 21:13 51.62614 5.97136 6804 ft 271 kts 245°
2026-05-05 21:13 51.61805 5.94395 6728 ft 271 kts 244°
2026-05-05 21:13 51.60991 5.91671 6708 ft 271 kts 244°
2026-05-05 21:13 51.60099 5.88992 6613 ft 272 kts 238°
2026-05-05 21:14 51.59081 5.86431 6522 ft 271 kts 237°
2026-05-05 21:14 51.58081 5.83864 6409 ft 271 kts 239°
2026-05-05 21:14 51.57149 5.81246 6298 ft 270 kts 241°
2026-05-05 21:14 51.56285 5.78558 6225 ft 270 kts 244°
2026-05-05 21:15 51.55483 5.75829 6148 ft 270 kts 245°
2026-05-05 21:15 51.54728 5.73064 6063 ft 270 kts 247°
2026-05-05 21:15 51.54007 5.70275 5993 ft 270 kts 248°
2026-05-05 21:15 51.53312 5.67472 5899 ft 270 kts 249°
2026-05-05 21:16 51.52635 5.64654 5821 ft 270 kts 249°
2026-05-05 21:16 51.51981 5.61874 5785 ft 270 kts 250°
2026-05-05 21:16 51.51321 5.59054 5733 ft 268 kts 250°
2026-05-05 21:16 51.50698 5.56370 5678 ft 247 kts 250°
2026-05-05 21:17 51.50102 5.53795 5618 ft 241 kts 250°
2026-05-05 21:17 51.49527 5.51303 5513 ft 241 kts 250°
2026-05-05 21:17 51.48954 5.48821 5251 ft 229 kts 250°
2026-05-05 21:17 51.48429 5.46562 4859 ft 207 kts 250°
2026-05-05 21:18 51.47936 5.44457 4301 ft 199 kts 251°
2026-05-05 21:18 51.47620 5.43054 3859 ft 197 kts 256°
2026-05-05 21:18 51.47262 5.40124 3791 ft 200 kts 263°
2026-05-05 21:18 51.47114 5.38612 3773 ft 206 kts 263°
2026-05-05 21:19 51.46878 5.36335 3661 ft 204 kts 262°
2026-05-05 21:19 51.46613 5.34145 3465 ft 198 kts 261°
2026-05-05 21:19 51.46331 5.32142 3371 ft 173 kts 259°
2026-05-05 21:19 51.46032 5.30257 3190 ft 190 kts 257°
2026-05-05 21:20 51.45664 5.28177 3089 ft 192 kts 255°
2026-05-05 21:20 51.45251 5.26152 3043 ft 191 kts 252°
2026-05-05 21:20 51.44779 5.24134 3018 ft 195 kts 250°
2026-05-05 21:20 51.44221 5.22159 3018 ft 194 kts 243°
2026-05-05 21:21 51.43487 5.20366 3015 ft 192 kts 231°
2026-05-05 21:21 51.42579 5.18775 3017 ft 195 kts 223°
2026-05-05 21:21 51.41560 5.17354 3014 ft 193 kts 217°
2026-05-05 21:21 51.40487 5.16053 3003 ft 195 kts 214°
2026-05-05 21:22 51.39373 5.14827 2925 ft 189 kts 212°
2026-05-05 21:22 51.38194 5.14142 2699 ft 176 kts 175°
2026-05-05 21:22 51.37134 5.14761 2366 ft 160 kts 127°
2026-05-05 21:22 51.36479 5.16286 2417 ft 166 kts 114°
2026-05-05 21:23 51.35888 5.17907 2225 ft 169 kts 114°
2026-05-05 21:23 51.35295 5.19429 2102 ft 155 kts 115°
2026-05-05 21:23 51.34700 5.20883 2069 ft 158 kts 116°
2026-05-05 21:23 51.34065 5.22327 2041 ft 159 kts 118°
2026-05-05 21:24 51.33508 5.23815 2023 ft 152 kts 99°
2026-05-05 21:24 51.33687 5.25360 2030 ft 144 kts 48°
2026-05-05 21:24 51.34496 5.26208 2027 ft 135 kts 29°
2026-05-05 21:24 51.35300 5.26895 2020 ft 133 kts 30°
2026-05-05 21:25 51.36103 5.27625 2012 ft 131 kts 32°
2026-05-05 21:25 51.36897 5.28405 1914 ft 137 kts 33°
2026-05-05 21:25 51.37658 5.29219 1699 ft 128 kts 34°
2026-05-05 21:25 51.38401 5.30041 1498 ft 131 kts 35°
2026-05-05 21:26 51.39133 5.30868 1418 ft 122 kts 34°
2026-05-05 21:26 51.39820 5.31648 1317 ft 125 kts 34°
2026-05-05 21:26 51.40549 5.32456 1034 ft 126 kts 34°
2026-05-05 21:26 51.41282 5.33276 834 ft 129 kts 33°
2026-05-05 21:27 51.42033 5.34112 609 ft 132 kts 34°
2026-05-05 21:27 51.42780 5.34962 458 ft 131 kts 36°
2026-05-05 21:27 51.43526 5.35801 271 ft 131 kts 33°
2026-05-05 21:27 51.44275 5.36620 91 ft 126 kts 34°
2026-05-05 21:28 51.44811 5.37228 87 ft 47 kts 35°
2026-05-05 21:28 51.44961 5.37395 83 ft 19 kts 34°
2026-05-05 21:28 51.45065 5.37509 73 ft 17 kts 34°
2026-05-05 21:28 51.45147 5.37593 84 ft 11 kts 23°
2026-05-05 21:29 51.45266 5.37713 87 ft 29 kts 38°
2026-05-05 21:29 51.45367 5.37860 87 ft 7 kts 67°
2026-05-05 21:29 51.45364 5.37922 87 ft 7 kts 107°
2026-05-05 21:29 51.45336 5.37986 83 ft 8 kts 127°
2026-05-05 21:30 51.45302 5.38058 84 ft 8 kts 127°
2026-05-05 21:30 51.45271 5.38127 86 ft 8 kts 125°
2026-05-05 21:30 51.45238 5.38206 83 ft 10 kts 120°
2026-05-05 21:30 51.45248 5.38273 83 ft 4 kts 67°
2026-05-05 21:31 51.45252 5.38290 85 ft 4 kts 69°
2026-05-05 21:31 51.45257 5.38306 85 ft 1 kts 65°
2026-05-05 21:31 51.45265 5.38336 84 ft 2 kts 76°
2026-05-05 21:31 51.45264 5.38346 87 ft 2 kts 89°
2026-05-05 21:32 51.45263 5.38360 85 ft 1 kts 99°
2026-05-05 21:32 51.45259 5.38369 85 ft 1 kts 117°
2026-05-05 21:32 51.45259 5.38370 85 ft 0 kts 119°